CAPE
5 7 9 12 7 6 5 3 5 1 0 0 1 6 6 0 0 0 0 0 0 0 0 0 0 0 0 0 0 0 0 0 0 0 0 0 0 0 0 0 0 0 0 0 0 0 0
8 6 4 5 6 7 7 3 3 0 0 0 0 0 0 0 0 0 0 0 0 0 0 0 0 0 0 0 0 0 0 0 0 0 0 0 0 0 0 0 0 0 0 0 0 0 0
4 4 2 3 3 4 8 4 3 1 1 1 0 0 0 0 0 0 0 0 0 0 0 0 0 0 0 0 0 0 0 0 0 0 0 0 0 0 0 0 0 0 0 0 0 0 0
1 4 4 2 1 3 3 3 3 1 1 1 1 1 3 0 0 0 0 0 0 0 0 0 0 0 0 0 0 0 0 0 0 0 0 0 0 0 0 0 0 0 0 0 0 0 0
4 5 4 5 1 2 2 1 1 2 3 3 2 1 0 0 0 0 0 0 0 0 0 0 0 0 0 0 0 0 0 0 0 0 0 0 0 0 0 0 0 0 0 0 0 0 0
4 2 3 3 3 2 1 0 1 1 0 0 0 0 0 0 0 0 0 0 0 0 0 0 0 0 0 0 0 0 0 0 0 0 0 0 0 0 0 0 0 0 0 0 0 0 0
2 2 1 1 2 3 0 1 0 0 0 0 0 0 0 0 0 0 0 0 0 0 0 0 0 0 0 0 0 0 0 0 0 0 0 0 0 0 0 0 0 0 0 0 0 0 0
4 3 3 2 1 0 1 1 0 0 0 0 0 0 0 0 0 0 0 0 0 0 0 0 0 0 0 0 0 0 0 0 0 0 0 0 0 0 0 0 0 0 0 0 0 0 0
4 4 3 1 0 0 0 0 0 0 0 0 0 0 0 0 0 0 0 0 0 0 0 0 0 0 0 0 0 0 0 0 0 0 0 0 0 0 0 0 0 0 0 0 0 0 0
5 4 3 1 0 0 0 0 0 0 0 0 0 0 0 0 0 0 0 0 0 0 0 0 0 0 0 0 0 0 0 0 0 0 0 0 0 0 0 0 0 0 0 0 0 0 0
2 4 3 1 0 0 0 0 0 0 0 0 0 0 0 0 0 0 0 0 0 0 0 0 0 0 0 0 0 0 0 0 0 0 0 0 0 0 0 0 0 0 0 0 0 0 0
1 2 2 1 1 0 0 0 0 0 0 0 0 0 0 0 0 0 0 0 0 0 0 0 0 0 0 0 0 0 0 0 0 0 0 0 0 0 0 0 0 0 0 0 0 0 0
6 1 1 0 1 0 0 0 0 0 0 0 0 0 0 0 0 0 0 0 0 0 0 0 0 0 0 0 0 0 0 0 0 0 0 0 0 0 0 0 0 0 0 0 0 0 0
1 4 1 1 0 0 0 0 0 0 0 0 0 0 0 0 0 0 0 0 0 0 0 0 0 0 0 0 0 0 0 0 0 0 0 0 0 0 0 0 0 0 0 0 0 0 0
0 1 1 0 0 0 0 0 0 0 0 0 0 0 0 0 0 0 0 0 0 0 0 0 0 0 0 0 0 0 0 0 0 0 0 0 0 0 0 0 0 0 0 0 0 0 0
0 0 0 0 0 0 0 0 0 0 0 0 0 0 0 0 0 0 0 0 0 0 0 0 0 0 0 0 0 0 0 0 0 0 0 0 0 0 0 0 0 0 0 0 0 0 0
0 0 0 0 0 0 0 0 0 0 0 0 0 0 0 0 0 0 0 0 0 0 0 0 0 0 0 0 0 0 0 0 0 0 0 0 0 0 0 0 0 0 0 0 0 0 0
0 0 0 0 0 0 0 0 0 0 0 0 0 0 0 0 0 0 0 0 0 0 0 0 0 0 0 0 0 0 0 0 0 0 0 0 0 0 0 0 0 0 0 0 0 0 0
0 0 0 0 0 0 0 0 0 0 0 0 0 0 0 0 0 0 0 0 0 0 0 0 0 0 0 0 0 0 0 0 0 0 0 0 0 0 0 0 0 0 0 0 0 0 0
0 0 0 0 0 0 0 0 0 0 0 0 0 0 0 0 0 0 0 0 0 0 0 0 0 0 0 0 0 0 0 0 0 0 0 0 0 0 0 0 0 0 0 0 0 0 0
0 0 0 0 0 0 0 0 0 0 0 0 0 0 0 0 0 0 0 0 0 0 0 0 0 0 0 0 0 0 0 0 0 0 0 0 0 0 0 0 0 0 0 0 0 0 0
0 0 0 0 0 0 0 0 0 0 0 0 0 0 0 0 0 0 0 0 0 0 0 0 0 0 0 0 0 0 0 0 0 0 0 0 0 0 0 0 0 0 0 0 0 0 0
1 0 0 0 0 0 0 0 0 0 0 0 0 0 0 0 0 0 0 0 0 0 0 0 0 0 0 0 0 0 0 0 0 0 0 0 0 0 0 0 0 0 0 0 0 0 0
1 0 0 0 0 0 0 0 0 0 0 0 0 0 0 0 0 0 0 0 0 0 0 0 0 0 0 0 0 0 0 0 0 0 0 0 0 0 0 0 0 0 0 0 0 0 0
0 0 1 0 0 0 0 0 0 0 0 0 0 0 0 0 0 0 0 0 0 0 0 0 0 0 0 0 0 0 0 0 0 0 0 0 0 0 0 0 0 0 0 0 0 0 0
0 0 0 0 0 0 0 0 0 0 0 0 0 0 0 0 0 0 0 0 0 0 0 0 0 0 0 0 0 0 0 0 0 0 0 0 0 0 0 0 0 0 0 0 0 0 0
0 0 0 0 0 0 0 0 0 0 0 0 0 0 0 0 0 0 0 0 0 0 0 0 0 0 0 0 0 0 0 0 0 0 0 0 0 0 0 0 0 0 0 0 0 0 0
0 0 0 0 0 0 0 0 0 0 0 0 0 0 0 0 0 0 0 0 0 0 0 0 0 0 0 0 0 0 0 0 0 0 0 0 0 0 0 0 0 0 0 0 0 0 0
0 0 0 0 0 0 0 0 0 0 0 0 0 0 0 0 0 0 0 0 0 0 0 0 0 0 0 0 0 0 0 0 0 0 0 0 0 0 0 0 0 0 0 0 0 0 0
CIN
-1 -3 -4 -4 -7 -11 -5 -4 -19 -16 -0 -0 -2 -18 -54 -0 -0 -0 -0 -0 -0 -0 -0 -0 -0 -0 -0 -0 -0 -0 -0 -0 -0 -0 -0 -0 -0 -0 -0 -0 -0 -0 -0 -0 -0 -0 -0
-1 -2 -1 -1 -4 -6 -6 -2 -2 -0 -0 -0 -0 -0 -0 -0 -0 -0 -0 -0 -0 -0 -0 -0 -0 -0 -0 -0 -0 -0 -0 -0 -0 -0 -0 -0 -0 -0 -0 -0 -0 -0 -0 -0 -0 -0 -0
-0 -0 -1 -0 -0 -3 -5 -2 -1 -0 -0 -0 -0 -0 -0 -0 -0 -0 -0 -0 -0 -0 -0 -0 -0 -0 -0 -0 -0 -0 -0 -0 -0 -0 -0 -0 -0 -0 -0 -0 -0 -0 -0 -0 -0 -0 -0
-0 -0 -0 -0 -0 -1 -1 -1 -0 -0 -0 -0 -0 -0 -0 -0 -0 -0 -0 -0 -0 -0 -0 -0 -0 -0 -0 -0 -0 -0 -0 -0 -0 -0 -0 -0 -0 -0 -0 -0 -0 -0 -0 -0 -0 -0 -0
-0 -0 -0 -0 -0 -0 -0 -0 -0 -0 -0 -0 -0 -0 -0 -0 -0 -0 -0 -0 -0 -0 -0 -0 -0 -0 -0 -0 -0 -0 -0 -0 -0 -0 -0 -0 -0 -0 -0 -0 -0 -0 -0 -0 -0 -0 -0
-0 -0 -0 -0 -0 -0 -0 -0 -0 -0 -0 -0 -0 -0 -0 -0 -0 -0 -0 -0 -0 -0 -0 -0 -0 -0 -0 -0 -0 -0 -0 -0 -0 -0 -0 -0 -0 -0 -0 -0 -0 -0 -0 -0 -0 -0 -0
-0 -0 -0 -0 -0 -0 -0 -0 -0 -0 -0 -0 -0 -0 -0 -0 -0 -0 -0 -0 -0 -0 -0 -0 -0 -0 -0 -0 -0 -0 -0 -0 -0 -0 -0 -0 -0 -0 -0 -0 -0 -0 -0 -0 -0 -0 -0
-0 -0 -0 -0 -0 -0 -0 -0 -0 -0 -0 -0 -0 -0 -0 -0 -0 -0 -0 -0 -0 -0 -0 -0 -0 -0 -0 -0 -0 -0 -0 -0 -0 -0 -0 -0 -0 -0 -0 -0 -0 -0 -0 -0 -0 -0 -0
-1 -0 -0 -0 -0 -0 -0 -0 -0 -0 -0 -0 -0 -0 -0 -0 -0 -0 -0 -0 -0 -0 -0 -0 -0 -0 -0 -0 -0 -0 -0 -0 -0 -0 -0 -0 -0 -0 -0 -0 -0 -0 -0 -0 -0 -0 -0
-1 -0 -0 -0 -0 -0 -0 -0 -0 -0 -0 -0 -0 -0 -0 -0 -0 -0 -0 -0 -0 -0 -0 -0 -0 -0 -0 -0 -0 -0 -0 -0 -0 -0 -0 -0 -0 -0 -0 -0 -0 -0 -0 -0 -0 -0 -0
-0 -0 -0 -0 -0 -0 -0 -0 -0 -0 -0 -0 -0 -0 -0 -0 -0 -0 -0 -0 -0 -0 -0 -0 -0 -0 -0 -0 -0 -0 -0 -0 -0 -0 -0 -0 -0 -0 -0 -0 -0 -0 -0 -0 -0 -0 -0
-0 -0 -0 -0 -0 -0 -0 -0 -0 -0 -0 -0 -0 -0 -0 -0 -0 -0 -0 -0 -0 -0 -0 -0 -0 -0 -0 -0 -0 -0 -0 -0 -0 -0 -0 -0 -0 -0 -0 -0 -0 -0 -0 -0 -0 -0 -0
-0 -0 -0 -0 -0 -0 -0 -0 -0 -0 -0 -0 -0 -0 -0 -0 -0 -0 -0 -0 -0 -0 -0 -0 -0 -0 -0 -0 -0 -0 -0 -0 -0 -0 -0 -0 -0 -0 -0 -0 -0 -0 -0 -0 -0 -0 -0
-0 -0 -0 -0 -0 -0 -0 -0 -0 -0 -0 -0 -0 -0 -0 -0 -0 -0 -0 -0 -0 -0 -0 -0 -0 -0 -0 -0 -0 -0 -0 -0 -0 -0 -0 -0 -0 -0 -0 -0 -0 -0 -0 -0 -0 -0 -0
-0 -0 -0 -0 -0 -0 -0 -0 -0 -0 -0 -0 -0 -0 -0 -0 -0 -0 -0 -0 -0 -0 -0 -0 -0 -0 -0 -0 -0 -0 -0 -0 -0 -0 -0 -0 -0 -0 -0 -0 -0 -0 -0 -0 -0 -0 -0
-0 -0 -0 -0 -0 -0 -0 -0 -0 -0 -0 -0 -0 -0 -0 -0 -0 -0 -0 -0 -0 -0 -0 -0 -0 -0 -0 -0 -0 -0 -0 -0 -0 -0 -0 -0 -0 -0 -0 -0 -0 -0 -0 -0 -0 -0 -0
-0 -0 -0 -0 -0 -0 -0 -0 -0 -0 -0 -0 -0 -0 -0 -0 -0 -0 -0 -0 -0 -0 -0 -0 -0 -0 -0 -0 -0 -0 -0 -0 -0 -0 -0 -0 -0 -0 -0 -0 -0 -0 -0 -0 -0 -0 -0
-0 -0 -0 -0 -0 -0 -0 -0 -0 -0 -0 -0 -0 -0 -0 -0 -0 -0 -0 -0 -0 -0 -0 -0 -0 -0 -0 -0 -0 -0 -0 -0 -0 -0 -0 -0 -0 -0 -0 -0 -0 -0 -0 -0 -0 -0 -0
-0 -0 -0 -0 -0 -0 -0 -0 -0 -0 -0 -0 -0 -0 -0 -0 -0 -0 -0 -0 -0 -0 -0 -0 -0 -0 -0 -0 -0 -0 -0 -0 -0 -0 -0 -0 -0 -0 -0 -0 -0 -0 -0 -0 -0 -0 -0
-0 -0 -0 -0 -0 -0 -0 -0 -0 -0 -0 -0 -0 -0 -0 -0 -0 -0 -0 -0 -0 -0 -0 -0 -0 -0 -0 -0 -0 -0 -0 -0 -0 -0 -0 -0 -0 -0 -0 -0 -0 -0 -0 -0 -0 -0 -0
-0 -0 -0 -0 -0 -0 -0 -0 -0 -0 -0 -0 -0 -0 -0 -0 -0 -0 -0 -0 -0 -0 -0 -0 -0 -0 -0 -0 -0 -0 -0 -0 -0 -0 -0 -0 -0 -0 -0 -0 -0 -0 -0 -0 -0 -0 -0
-0 -0 -0 -0 -0 -0 -0 -0 -0 -0 -0 -0 -0 -0 -0 -0 -0 -0 -0 -0 -0 -0 -0 -0 -0 -0 -0 -0 -0 -0 -0 -0 -0 -0 -0 -0 -0 -0 -0 -0 -0 -0 -0 -0 -0 -0 -0
-0 -0 -0 -0 -0 -0 -0 -0 -0 -0 -0 -0 -0 -0 -0 -0 -0 -0 -0 -0 -0 -0 -0 -0 -0 -0 -0 -0 -0 -0 -0 -0 -0 -0 -0 -0 -0 -0 -0 -0 -0 -0 -0 -0 -0 -0 -0
-0 -0 -0 -0 -0 -0 -0 -0 -0 -0 -0 -0 -0 -0 -0 -0 -0 -0 -0 -0 -0 -0 -0 -0 -0 -0 -0 -0 -0 -0 -0 -0 -0 -0 -0 -0 -0 -0 -0 -0 -0 -0 -0 -0 -0 -0 -0
-0 -0 -0 -0 -0 -0 -0 -0 -0 -0 -0 -0 -0 -0 -0 -0 -0 -0 -0 -0 -0 -0 -0 -0 -0 -0 -0 -0 -0 -0 -0 -0 -0 -0 -0 -0 -0 -0 -0 -0 -0 -0 -0 -0 -0 -0 -0
-0 -0 -0 -0 -0 -0 -0 -0 -0 -0 -0 -0 -0 -0 -0 -0 -0 -0 -0 -0 -0 -0 -0 -0 -0 -0 -0 -0 -0 -0 -0 -0 -0 -0 -0 -0 -0 -0 -0 -0 -0 -0 -0 -0 -0 -0 -0
-0 -0 -0 -0 -0 -0 -0 -0 -0 -0 -0 -0 -0 -0 -0 -0 -0 -0 -0 -0 -0 -0 -0 -0 -0 -0 -0 -0 -0 -0 -0 -0 -0 -0 -0 -0 -0 -0 -0 -0 -0 -0 -0 -0 -0 -0 -0
-0 -0 -0 -0 -0 -0 -0 -0 -0 -0 -0 -0 -0 -0 -0 -0 -0 -0 -0 -0 -0 -0 -0 -0 -0 -0 -0 -0 -0 -0 -0 -0 -0 -0 -0 -0 -0 -0 -0 -0 -0 -0 -0 -0 -0 -0 -0
-0 -0 -0 -0 -0 -0 -0 -0 -0 -0 -0 -0 -0 -0 -0 -0 -0 -0 -0 -0 -0 -0 -0 -0 -0 -0 -0 -0 -0 -0 -0 -0 -0 -0 -0 -0 -0 -0 -0 -0 -0 -0 -0 -0 -0 -0 -0
Wind_Speed
16 15 14 15 16 12 10 14 15 17 20 21 23 24 24 24 25 25 26 26 26 25 24 23 21 20 18 18 16 16 17 18 17 17 17 18 19 19 19 18 18 19 17 17 16 16 16
15 13 12 13 12 10 12 14 17 20 22 23 23 24 24 24 24 25 25 25 25 24 23 22 21 20 19 20 16 16 17 16 16 16 17 17 18 19 18 19 21 17 17 15 14 15 13
14 13 12 13 10 10 12 15 18 21 24 25 24 23 23 24 24 24 24 25 25 24 23 22 21 19 21 17 16 16 15 15 16 16 17 17 18 21 19 19 18 17 16 14 13 13 17
13 12 12 13 10 12 14 16 19 21 23 24 24 24 24 24 24 23 24 24 24 23 22 22 20 19 18 15 16 16 16 16 16 16 16 17 18 17 20 17 18 18 19 20 13 13 16
12 12 12 13 11 13 15 17 19 21 22 23 24 24 24 23 23 23 23 23 23 22 22 21 19 20 17 16 17 16 16 17 17 17 17 17 19 19 17 19 19 17 26 19 18 15 18
12 11 12 14 12 13 15 17 19 20 22 23 24 24 23 23 22 23 23 22 20 19 19 19 20 19 17 17 16 17 16 17 18 17 18 18 18 19 19 19 24 26 22 23 24 16 17
12 10 11 13 14 14 16 17 19 21 21 22 23 23 22 22 23 23 22 20 20 18 20 17 15 15 14 14 16 16 17 17 18 18 20 18 21 20 22 21 25 27 27 27 23 20 24
12 11 11 13 15 15 16 18 19 21 22 22 23 23 22 23 23 23 22 22 17 16 14 14 14 13 14 16 16 16 18 18 18 20 18 20 23 20 21 22 24 25 26 25 21 20 22
12 11 12 14 16 16 16 18 19 20 21 21 22 23 23 23 22 21 21 18 17 17 16 14 14 14 14 17 17 17 19 18 20 21 21 25 21 19 20 22 24 23 25 27 25 23 23
10 12 14 15 17 19 18 18 18 19 20 21 23 24 25 23 19 19 19 17 18 17 18 14 16 15 15 16 18 17 18 19 20 23 22 25 19 22 23 24 22 25 20 23 24 26 26
9 11 14 17 18 19 20 21 21 21 21 22 23 23 24 25 14 20 16 19 18 18 21 14 16 15 15 18 16 17 18 19 23 22 21 21 21 21 21 22 19 22 21 23 25 28 30
6 9 14 17 18 19 21 23 23 23 21 21 22 23 22 20 20 17 18 18 18 18 19 14 15 17 17 18 18 19 19 18 20 23 22 25 20 20 22 19 20 20 23 23 24 24 26
6 6 11 15 17 18 20 22 23 24 25 22 20 20 19 17 16 17 18 17 17 21 15 15 16 17 20 19 19 21 22 22 23 23 18 20 19 18 18 20 17 19 22 23 22 21 24
9 8 6 10 13 16 19 20 21 23 26 25 23 19 14 15 16 18 19 20 22 17 17 16 16 18 20 19 21 22 22 24 20 22 26 23 21 14 17 19 21 17 21 25 27 28 28
13 11 9 7 9 12 15 18 20 21 22 23 22 18 16 15 17 19 21 25 20 18 18 18 18 22 21 21 21 20 21 21 19 19 21 22 19 16 18 18 17 16 19 21 27 27 29
14 13 11 9 7 9 13 15 18 23 25 25 17 17 14 17 17 18 23 24 20 18 19 20 23 20 22 19 20 18 18 17 17 17 18 20 23 18 17 18 18 19 21 23 21 29 33
14 14 14 12 9 8 11 14 16 18 24 22 20 20 16 18 18 17 26 20 19 19 19 21 22 21 21 20 20 19 19 19 18 17 18 20 20 19 18 16 20 18 21 21 25 26 33
15 14 14 14 13 10 9 13 17 18 10 18 16 17 16 16 18 20 22 19 18 17 17 18 20 20 20 18 19 20 21 19 17 17 19 19 21 23 22 19 20 22 23 24 28 29 29
14 15 14 14 14 13 10 11 13 22 22 16 16 14 14 16 14 12 15 16 16 15 15 15 16 17 16 17 19 18 18 17 16 17 19 18 20 25 22 21 20 22 21 23 28 30 35
14 15 15 15 16 16 13 11 9 8 11 15 13 12 12 15 17 17 13 14 13 14 14 14 15 15 15 15 16 18 16 16 15 17 18 19 22 25 31 31 28 29 28 25 26 35 39
15 15 15 16 17 17 17 14 12 10 10 13 14 14 15 13 14 13 13 13 12 14 15 14 15 16 16 18 17 18 18 18 17 17 19 21 26 28 30 31 31 33 34 33 32 33 41
15 15 16 17 17 18 18 18 14 12 11 13 15 13 13 14 12 12 14 14 13 14 14 15 17 15 16 19 20 21 19 21 22 18 21 21 28 31 35 28 31 36 36 35 35 37 39
15 16 16 17 18 18 18 19 18 15 13 14 14 14 16 13 14 15 15 14 14 13 16 17 16 17 18 19 20 20 20 20 21 23 22 25 28 32 35 31 37 42 33 33 32 31 35
15 16 17 17 18 18 19 19 19 18 16 15 15 14 16 16 15 16 14 15 14 16 17 16 17 19 18 16 18 19 20 21 20 22 22 26 28 30 36 37 40 30 34 33 34 34 33
15 15 16 17 18 18 19 20 20 19 19 14 15 17 17 18 17 15 14 15 15 15 17 17 19 18 15 19 23 25 24 24 22 22 21 20 23 30 33 35 40 35 27 29 34 39 35
14 14 15 16 17 18 19 20 20 20 18 16 17 18 18 18 18 17 14 14 18 18 18 19 17 16 17 21 22 26 28 27 25 24 21 20 20 25 29 36 39 33 26 26 28 44 27
12 12 14 15 16 18 19 19 20 21 19 16 17 19 18 18 17 15 17 18 16 17 20 17 16 17 17 21 23 25 27 23 26 26 24 24 24 27 29 33 33 30 22 23 39 41 35
11 10 12 12 14 16 18 19 20 21 20 17 17 20 18 18 16 16 16 16 16 16 18 15 18 19 18 20 22 22 23 22 25 25 25 25 26 28 27 31 38 21 23 34 38 39 41
9 11 12 12 14 14 16 18 20 21 20 17 17 18 18 17 17 16 15 16 16 17 18 13 20 18 16 18 19 21 23 23 26 30 20 26 19 26 25 27 27 26 30 33 36 39 39
Wind_Direction
43 52 59 51 46 70 127 160 151 155 189 240 232 228 230 230 229 227 225 222 223 226 229 234 240 246 244 245 259 272 272 274 274 277 281 279 277 281 285 297 302 303 314 322 330 334 336
55 68 77 67 82 132 158 152 160 168 184 223 222 222 225 224 223 219 219 218 218 223 227 232 239 243 241 242 267 273 274 277 284 282 284 284 283 283 292 296 298 313 316 325 332 335 345
66 78 86 83 123 152 155 144 151 166 182 198 208 216 218 217 213 213 214 214 215 221 226 231 236 239 238 252 266 271 277 282 288 285 283 293 290 283 293 301 305 312 316 326 330 337 332
78 89 95 95 144 149 149 150 153 166 176 189 201 205 206 206 207 209 211 210 214 220 226 228 234 238 250 261 265 271 279 282 283 297 292 297 298 296 293 305 305 308 309 306 330 334 332
90 101 107 103 160 160 157 156 162 168 177 185 190 194 197 200 204 207 207 208 213 219 221 226 234 239 252 260 262 274 280 277 285 293 295 298 294 294 300 298 301 306 298 308 318 327 322
99 117 124 116 164 171 166 166 168 172 177 181 185 190 194 199 203 202 203 205 212 216 220 229 239 243 254 256 267 272 282 283 282 289 290 291 294 291 293 295 292 299 304 311 310 324 320
106 127 140 141 158 180 175 174 174 174 177 180 185 189 195 200 198 199 198 198 204 215 221 238 245 257 261 269 268 277 282 283 284 283 282 292 286 290 293 296 297 300 302 304 311 320 314
111 127 151 158 161 184 185 182 179 178 176 176 180 187 193 194 196 199 203 210 222 222 231 247 253 263 268 266 269 280 280 277 280 279 289 290 287 297 300 303 302 302 303 306 313 318 317
115 127 143 154 159 184 197 193 189 187 185 183 183 182 184 188 196 201 209 217 225 228 241 254 259 263 272 266 270 280 280 283 280 283 286 284 297 305 304 303 302 303 302 303 307 316 314
134 134 140 149 152 157 188 203 202 201 197 192 187 181 178 185 200 206 214 223 225 236 241 259 262 271 275 277 275 286 292 288 288 285 291 290 305 300 302 301 304 301 313 310 309 310 312
154 149 145 148 154 153 156 168 194 203 204 200 195 191 189 187 214 207 223 219 228 236 240 269 266 284 280 272 289 291 296 293 285 292 297 300 304 304 301 304 308 306 314 310 308 306 307
212 178 158 149 158 163 159 154 158 178 200 206 201 196 196 204 209 223 221 223 233 249 259 275 276 271 275 281 288 294 294 302 300 294 296 295 307 304 302 311 310 315 311 311 311 310 307
286 242 183 170 167 172 169 165 159 157 167 193 204 204 214 219 227 229 225 232 244 250 269 277 275 275 270 282 288 286 287 289 288 295 300 301 301 313 313 308 316 313 311 310 311 313 309
320 310 260 212 199 189 181 181 180 173 164 173 190 209 235 242 238 233 227 237 239 266 265 279 279 278 276 286 287 288 288 286 299 291 289 295 303 317 318 308 309 314 309 307 306 307 311
336 332 317 285 239 226 211 193 190 196 193 188 193 213 238 255 247 237 237 233 259 269 277 278 283 278 285 288 289 295 296 297 306 306 294 301 305 320 318 317 315 320 312 317 309 309 310
341 343 336 319 286 249 233 223 212 192 182 174 228 241 271 260 260 261 248 252 274 287 290 287 276 287 284 296 296 300 304 315 314 312 310 312 302 314 318 318 317 310 319 314 316 310 307
338 343 346 338 317 278 243 233 228 224 187 196 228 234 278 263 259 274 246 275 285 292 291 284 285 289 292 296 296 301 305 314 315 316 313 311 309 316 319 315 314 316 314 314 314 312 309
341 339 342 345 341 306 274 237 218 218 270 231 258 266 284 277 267 269 273 288 296 303 303 300 299 294 294 303 305 303 303 310 323 321 313 316 313 308 311 319 318 313 312 312 310 311 311
338 340 341 343 344 337 306 267 245 136 138 247 268 294 291 266 297 306 302 303 305 312 312 313 309 308 314 312 307 311 313 326 327 324 318 323 314 309 313 319 322 314 317 313 311 312 307
330 335 338 341 343 346 337 318 312 18 200 269 297 327 314 284 287 293 316 317 320 320 321 317 318 321 321 321 320 320 324 331 332 328 326 325 316 307 303 310 314 311 314 313 307 307 308
326 328 334 337 340 344 348 339 337 337 325 306 314 322 305 324 318 316 317 324 327 323 320 324 323 317 319 316 320 317 319 323 328 328 325 319 311 312 309 310 310 308 308 307 303 303 303
321 326 329 332 337 341 343 345 334 333 334 323 320 326 325 325 331 333 327 324 324 325 328 324 319 325 323 319 319 318 321 319 319 326 321 323 313 314 310 315 314 310 310 307 305 305 303
314 317 324 328 331 335 339 342 342 328 325 324 326 326 315 325 324 320 321 325 324 332 327 326 326 325 322 323 325 327 326 324 323 320 317 318 315 315 310 317 315 311 317 317 313 313 313
314 314 316 321 328 332 334 336 338 337 325 325 325 324 318 318 316 316 325 325 326 324 324 329 328 323 328 339 335 330 327 324 323 322 321 317 315 315 311 316 310 324 325 320 319 320 320
310 313 315 317 321 327 331 334 334 333 332 337 328 318 314 311 314 318 321 321 327 326 324 326 326 329 338 328 321 318 318 320 322 323 323 323 320 316 315 314 313 323 333 330 326 321 323
306 312 314 316 318 323 328 330 331 331 329 337 331 322 316 312 308 316 316 316 313 314 318 321 330 337 331 323 321 314 313 318 318 322 330 328 323 318 317 314 314 326 332 337 335 321 338
307 314 316 317 320 323 325 328 329 329 331 334 330 327 318 312 316 319 312 312 318 317 317 325 327 327 328 321 315 314 314 322 316 318 323 325 321 313 314 314 318 324 335 342 324 324 332
301 311 319 322 324 325 328 330 331 329 328 332 328 329 319 315 319 319 322 320 320 318 316 327 327 323 321 317 318 320 319 323 321 321 323 321 322 320 323 319 320 343 340 325 327 328 328
294 300 308 320 322 327 327 330 331 330 328 327 325 330 326 321 322 326 327 326 324 326 323 322 320 327 329 322 323 323 320 322 321 317 328 319 320 322 322 322 332 334 321 323 325 325 328